Regional Weather Roundup
Issued by NWS

Home | Current Version | Previous Version | Text Only | Print | Product List | Glossary Off
Versions: 1 2 3 4 5 6 7 8 9 10 11 12 13 14 15 16 17 18 19 20 21 22 23 24 25 26 27 28 29 30 31 32 33 34 35 36 37 38 39 40 41 42 43 44 45 46 47 48 49 50

000
ASUS45 KBOI 091510
RWRID
WEATHER ROUNDUP FOR IDAHO
NATIONAL WEATHER SERVICE BOISE ID
900 AM MDT WED JUL 09 2014

NOTE: "FAIR" INDICATES FEW OR NO CLOUDS BELOW 12000 FEET
WITH NO SIGNIFICANT WEATHER AND/OR OBSTRUCTIONS TO VISIBILITY

IDZ012-014-091600-
SOUTHWEST IDAHO


CITY           SKY/WX    TMP DP  RH WIND       PRES   REMARKS
BOISE          PTSUNNY   75  44  33 S3        29.95R
CALDWELL       PTSUNNY   75  50  41 NW5       29.96R
MOUNTAIN HOME  CLOUDY    79  48  34 NW13      29.94R
$$

IDZ016-017-091600-
SOUTHCENTRAL IDAHO


CITY           SKY/WX    TMP DP  RH WIND       PRES   REMARKS
BURLEY         MOSUNNY   75  50  41 W7        30.02R
JEROME         MOSUNNY   76  49  38 W8        30.02R
TWIN FALLS     SUNNY     83  44  25 W9        30.02R
$$

IDZ019>023-091600-
SOUTHEAST IDAHO


CITY           SKY/WX    TMP DP  RH WIND       PRES   REMARKS
IDAHO FALLS    MOSUNNY   68  50  52 CALM      30.06S
POCATELLO      SUNNY     72  41  32 SW5       30.06R
REXBURG        SUNNY     65  50  58 NE3       30.08S
$$

IDZ006-010-011-018-031-032-091600-
CENTRAL IDAHO MOUNTAINS


CITY           SKY/WX    TMP DP  RH WIND       PRES   REMARKS
MCCALL         CLOUDY    69  49  48 CALM      30.08S
HAILEY         MOSUNNY   72  45  37 W5        30.11R
STANLEY          N/A     57  42  57 N3        30.22R
SALMON         MOSUNNY   63  50  63 CALM      30.06R
CHALLIS        MOSUNNY   71  46  40 CALM      30.10S
$$

IDZ002-004-006-007-026-091600-
NORTHERN IDAHO


CITY           SKY/WX    TMP DP  RH WIND       PRES   REMARKS
LEWISTON       PTSUNNY   74  55  51 NE7       29.89F
LOWELL           N/A     64  56  75 CALM      29.97F
COEUR D`ALENE  MOSUNNY   70  55  60 SE7       29.92R
MULLAN PASS    MOSUNNY   68  43  40 CALM      30.14S
$$


USA.gov is the U.S. government's official web portal to all federal, state and local government web resources and services.